Location: Chihuahua
(28.6330°N, 106.0830°W)
Time: 02:59:24
(UTC-07:00)

Daily predictions for brighter satellites

Satellite Brightness Start Highest point End
(mag) Time Altitude Azimuth Time Altitude Azimuth Time Altitude Azimuth
CZ-3 R/B 4.0 02:22:12 10° SW 03:03:21 53° SSE 03:12:41 10° E
Cosmos 2369 Rocket 4.3 04:13:48 14° NNE 04:17:06 22° ENE 04:21:24 10° ESE
Centaur AC-112 4.1 04:19:11 35° SSE 04:19:11 35° SSE 04:21:27 10° ESE
USA 32 4.4 04:30:52 57° SSE 04:30:52 57° SSE 04:35:03 10° S
Atlas Centaur 2 4.1 04:27:12 18° SSW 04:32:53 39° SSE 04:40:13 10° E
Cosmos 1943 3.9 04:39:04 40° N 04:39:04 40° N 04:42:37 10° NNE
CZ-3 Stage 3 4.4 04:38:52 30° SSE 04:38:52 30° SSE 04:41:46 10° SE
USA 116 4.2 04:38:06 10° SSE 04:42:06 72° ESE 04:42:06 72° ESE
Cosmos 1238 Rocket 4.2 04:50:46 48° WSW 04:50:46 48° WSW 04:56:13 10° SSW
Tiangong 2 4.2 04:52:04 10° NE 04:52:04 10° NE 04:52:05 10° NE
Cosmos 1461 3.9 04:55:31 10° S 04:59:45 48° ESE 05:03:51 10° NE
COSMO-SKYMED 1 4.1 04:56:45 10° SE 05:00:39 34° ENE 05:04:35 10° N
Cosmos 2154 Rocket 3.8 04:55:14 10° S 05:01:26 76° W 05:07:38 10° N
Cosmos 1536 2.7 04:57:44 10° S 05:01:43 86° E 05:03:42 29° N
USA 229 DEB 3.6 04:56:21 15° SW 05:02:07 63° WNW 05:08:58 10° NNE
USA 229 3.6 04:56:13 14° SW 05:02:13 63° WNW 05:09:04 10° NNE
ASTRO E2 2.8 05:10:19 56° NNW 05:10:32 57° N 05:14:31 10° ENE
NOAA 6 3.9 05:10:48 10° N 05:15:52 63° WNW 05:20:57 10° SSW
H-2A ROCKET BODY 4.4 05:15:26 21° WSW 05:21:24 45° SSW 06:04:57 10° SE
Cosmos 1269 Rocket 3.9 05:17:58 10° SSW 05:23:14 82° WNW 05:28:34 10° NNE
SL-8 Rocket 4.3 05:18:23 10° S 05:24:36 72° E 05:30:48 10° N
Sakura Rocket 4.4 05:20:40 28° W 05:24:41 89° SSW 05:33:59 10° E
Skynet4D Del rocket 3.6 05:22:36 28° W 05:25:30 75° S 05:30:50 10° E
CZ-4 R/B 4.1 05:22:53 10° NE 05:25:51 21° E 05:28:48 10° SSE
Cosmos 1340 4.3 05:24:28 10° NNE 05:27:56 35° E 05:31:25 10° SSE
OAO 3 Copernicus 4.3 05:30:09 28° WNW 05:32:50 82° NNE 05:37:55 10° ESE
Okean 1-7 Rocket 3.6 05:29:44 16° NNW 05:33:00 52° W 05:37:16 10° S
Cosmos 2263 4.3 05:28:44 10° NNW 05:34:21 78° ENE 05:39:56 10° SSE
USA 215 3.4 05:30:15 10° NNE 05:36:30 51° NW 05:42:44 10° WSW
CSL-04 Rocket 3.8 05:32:13 10° NNE 05:37:44 83° ESE 05:43:10 10° SSW
Cosmos 2366 rocket 4.4 05:32:41 10° S 05:38:53 67° E 05:45:11 10° NNE
Cosmos 2056 Rocket 4.4 05:37:42 23° WNW 05:38:54 25° W 05:43:02 10° SSW
Cosmos 1455 Rocket 3.4 05:35:50 10° S 05:40:05 65° E 05:44:23 10° NNE
Cosmos 1295 Rocket 4.5 05:36:06 10° SSW 05:42:18 61° W 05:48:29 10° N
Cosmos 1048 Rocket 4.0 05:38:17 10° SSW 05:43:17 55° WNW 05:48:22 10° N
Ariane Rocket 2.9 05:40:35 10° N 05:45:34 62° WNW 05:50:34 10° SSW
SKYMED 2 3.6 05:44:22 10° S 05:48:36 56° W 05:52:52 10° NNW
CSL-04 Debris 4.2 05:43:07 10° NNE 05:48:38 88° ESE 05:54:07 10° SSW
Cosmos 1975 3.8 05:45:49 10° S 05:49:47 52° E 05:53:47 10° NNE
DMSP B5D1-3 4.5 05:46:20 10° S 05:51:28 76° WSW 05:56:38 10° NNW
Cosmos 2218 Rocket 4.0 05:45:08 10° S 05:51:31 82° W 05:57:57 10° N
GRACE-2 3.8 05:56:28 10° N 05:59:14 64° W 06:01:59 10° S
GRACE-1 3.8 05:56:54 10° N 05:59:39 61° W 06:02:24 10° SSW
Cosmos 2369 Rocket 2.7 05:55:56 10° NW 06:01:10 38° WSW 06:06:21 10° S
Lacrosse 4 Rocket 2.4 05:57:57 10° N 06:01:53 45° ENE 06:05:45 10° SE
COSMOS 2406 3.1 05:56:40 10° SSW 06:02:18 71° WNW 06:07:57 10° NNE
Cosmos 1025 Rocket 3.6 05:59:28 10° NNW 06:03:26 35° W 06:07:20 10° SSW
SPOT 3 Rocket 4.4 06:03:06 10° NNE 06:08:09 55° E 06:13:11 10° S
SL-27 R/B 2.6 06:05:51 10° SSW 06:09:18 51° WNW 06:12:49 10° N
Meteor 2-4 Rocket 4.3 06:05:58 10° NNW 06:11:03 36° W 06:16:16 10° SSW
Cosmos 494 Rocket 4.2 06:12:54 10° S 06:17:59 78° ESE 06:23:08 10° NNE
NOSS 3-1 (C) 3.7 06:14:31 10° SW 06:19:51 40° NW 06:25:40 10° NNE
Cosmos 1727 Rocket 4.1 06:14:42 10° N 06:20:55 88° E 06:27:10 10° S
GPS 2-04 Rocket1 3.0 06:18:26 10° WSW 06:22:14 69° SSE 06:26:15 10° ENE
Atlas Centaur 2 3.2 06:14:06 10° WSW 06:22:35 78° SSE 06:29:54 10° E
YAOGAN 1 2.7 06:18:45 10° NNE 06:23:05 83° E 06:27:24 10° S
USA 129 1.7 06:21:01 10° S 06:23:05 57° W 06:25:12 10° NNW
Helios 1B rocket 3.6 06:19:21 10° SSE 06:23:18 46° ENE 06:27:17 10° N
Cosmos 1515 3.8 06:21:32 10° N 06:25:22 84° E 06:29:10 10° S
Cosmos 1943 Rocket 2.4 06:22:09 10° NNW 06:27:29 52° WSW 06:32:49 10° S
